Location: Bourguignon
(49.5441°N, 3.1585°E)
Time: 15:59:31
(UTC+00:00)

Cosmos 2333 Rocket - Pass Details

Date: 15 May 2026
Orbit: 840 x 862 km, 70.8° (Epoch: 10 June)

Event Time Altitude Azimuth Distance (km) Brightness Sun altitude
Rises 19:50:21 0° 333° (NNW) 3,421 6.7 -4.2°
Reaches altitude 10° 19:52:56 10° 340° (NNW) 2,485 5.7 -4.6°
Maximum altitude 19:58:22 44° 52° (NE) 1,176 2.9 -5.3°
Drops below altitude 10° 20:03:49 10° 123° (ESE) 2,486 4.0 -6.0°
Enters shadow 20:04:29 - 126° (SE) 2,728 4.1 -6.1°
